Location: Haieshausen
(51.8387°N, 9.9720°E)
Time: 04:18:43
(UTC+00:00)

Okean 1 - Pass Details

Date: 14 July 2020
Orbit: 538 x 555 km, 82.5° (Epoch: 10 August)

Event Time Altitude Azimuth Distance (km) Brightness Sun altitude
Rises 00:15:28 0° 350° (N) 2,710 8.2 -15.7°
Reaches altitude 10° 00:17:38 10° 352° (N) 1,813 7.1 -15.7°
Maximum altitude 00:21:38 79° 79° (ENE) 558 3.3 -15.5°
Enters shadow 00:23:50 25° 163° (SSE) 1,108 4.4 -15.4°
